Date String (YYYY-MM-DD hh:mm:ss) UTC,Instrument flags,Ambient pressure (hPa),Sample flow (lpm),Bypass flow (lpm),Sample temperature (°C),Ambient temperature (°C),ASC tube jacket temperature (°C),LED temperature (°C),Box temperature (°C),Sample RH (%),Span deviation,Mass concentration (μg/m³),Mass concentration (μg/m³),Mass concentration (μg/m³)
DateTimeUTC,F1_M11,P_M11,Q1_M11,Q2_M11,T1_M11,T2_M11,T3_M11,T4_M11,T5_M11,U1_M11,ZSPAN_M11,X0_M11,X2_M11,X1_M11
2022-07-26 05:00:00,,0825.6,5.01,0.00,29.7,28.6,00.0,38.3,31.6,25.5,0000.0,0013.85,0009.22,0008.33
2022-07-26 05:01:00,,0825.6,4.99,0.00,29.6,28.0,00.0,38.2,31.5,25.3,0000.0,0014.50,0009.17,0008.30
2022-07-26 05:02:00,,0825.6,5.01,0.00,29.6,27.5,00.0,38.2,31.4,26.0,0000.0,0014.54,0009.13,0008.27
2022-07-26 05:03:00,,0825.6,4.99,0.00,29.6,27.4,00.0,38.2,31.3,28.4,0000.0,0014.50,0009.09,0008.25
2022-07-26 05:04:00,,0825.6,4.99,0.00,29.5,27.4,00.0,38.2,31.3,28.4,0000.0,0014.60,0009.10,0008.24
2022-07-26 05:05:00,,0825.6,5.00,0.00,29.5,27.6,00.0,38.2,31.3,28.1,0000.0,0014.61,0009.05,0008.21
2022-07-26 05:06:00,,0825.5,5.01,0.00,29.5,27.7,00.0,38.2,31.3,29.1,0000.0,0014.67,0009.04,0008.19
2022-07-26 05:07:00,,0825.6,5.00,0.00,29.5,27.9,00.0,38.2,31.3,30.3,0000.0,0014.95,0009.02,0008.17
2022-07-26 05:08:00,,0825.6,5.00,0.00,29.5,28.0,00.0,38.2,31.4,30.6,0000.0,0015.16,0009.01,0008.14
2022-07-26 05:09:00,,0825.5,5.00,0.00,29.5,28.1,00.0,38.2,31.4,30.6,0000.0,0015.22,0008.95,0008.11
2022-07-26 05:10:00,,0825.6,4.99,0.00,29.5,28.2,00.0,38.2,31.4,30.6,0000.0,0015.75,0008.91,0008.07
2022-07-26 05:11:00,,0825.6,5.01,0.00,29.6,28.4,00.0,38.3,31.5,30.6,0000.0,0015.73,0008.85,0008.04
2022-07-26 05:12:00,,0825.5,5.01,0.00,29.6,28.5,00.0,38.3,31.5,30.7,0000.0,0015.33,0008.91,0008.04
2022-07-26 05:13:00,,0825.5,4.99,0.00,29.6,28.5,00.0,38.3,31.6,30.1,0000.0,0015.04,0008.89,0008.03
2022-07-26 05:14:00,,0825.5,5.00,0.00,29.7,28.6,00.0,38.3,31.6,30.8,0000.0,0014.91,0008.86,0008.01
2022-07-26 05:15:00,,0825.5,5.00,0.00,29.7,28.3,00.0,38.3,31.6,31.4,0000.0,0014.92,0008.86,0008.02
2022-07-26 05:16:00,,0825.6,5.00,0.00,29.6,27.6,00.0,38.3,31.5,31.6,0000.0,0014.54,0008.86,0008.03
2022-07-26 05:17:00,,0825.6,5.00,0.00,29.6,27.4,00.0,38.3,31.4,32.7,0000.0,0014.50,0008.86,0008.01
2022-07-26 05:18:00,,0825.5,4.99,0.00,29.5,27.4,00.0,38.3,31.3,33.5,0000.0,0014.42,0008.81,0007.99
2022-07-26 05:19:00,,0825.6,5.01,0.00,29.5,27.5,00.0,38.3,31.3,33.1,0000.0,0013.95,0008.77,0007.99
2022-07-26 05:20:00,,0825.6,4.99,0.00,29.5,27.7,00.0,38.2,31.3,32.0,0000.0,0013.82,0008.75,0008.00
2022-07-26 05:21:00,,0825.6,5.01,0.00,29.5,27.8,00.0,38.3,31.4,31.4,0000.0,0013.31,0008.81,0008.05
2022-07-26 05:22:00,,0825.5,4.99,0.00,29.5,28.0,00.0,38.3,31.4,30.7,0000.0,0013.25,0008.90,0008.12
2022-07-26 05:23:00,,0825.6,5.01,0.00,29.5,28.1,00.0,38.3,31.4,30.6,0000.0,0013.97,0008.94,0008.15
2022-07-26 05:24:00,,0825.5,5.00,0.00,29.6,28.2,00.0,38.3,31.5,29.8,0000.0,0014.09,0008.99,0008.19
2022-07-26 05:25:00,,0825.5,5.00,0.00,29.6,28.4,00.0,38.3,31.5,29.2,0000.0,0014.51,0009.08,0008.24
2022-07-26 05:26:00,,0825.5,4.99,0.00,29.6,28.5,00.0,38.3,31.5,30.6,0000.0,0014.85,0009.11,0008.27
2022-07-26 05:27:00,,0825.5,5.00,0.00,29.6,28.5,00.0,38.3,31.6,31.2,0000.0,0015.85,0009.14,0008.29
2022-07-26 05:28:00,,0825.5,5.00,0.00,29.7,28.6,00.0,38.3,31.6,29.8,0000.0,0016.42,0009.16,0008.35
2022-07-26 05:29:00,,0825.5,5.01,0.00,29.7,28.1,00.0,38.3,31.6,30.8,0000.0,0016.31,0009.22,0008.41
2022-07-26 05:30:00,,0825.5,4.99,0.00,29.6,27.3,00.0,38.3,31.4,31.2,0000.0,0016.53,0009.30,0008.44
2022-07-26 05:31:00,,0825.5,5.01,0.00,29.6,26.9,00.0,38.2,31.3,30.8,0000.0,0016.73,0009.37,0008.46
2022-07-26 05:32:00,,0825.5,4.99,0.00,29.5,26.8,00.0,38.2,31.1,31.4,0000.0,0016.80,0009.38,0008.47
2022-07-26 05:33:00,,0825.5,5.00,0.00,29.4,27.0,00.0,38.2,31.1,31.6,0000.2,0016.94,0009.35,0008.47
2022-07-26 05:34:00,,0825.5,5.00,0.00,29.4,27.1,00.0,38.2,31.1,31.6,0000.6,0017.31,0009.36,0008.47
2022-07-26 05:35:00,,0825.5,5.00,0.00,29.4,27.3,00.0,38.2,31.1,31.7,0001.7,0017.98,0009.40,0008.45
2022-07-26 05:36:00,,0825.5,5.00,0.00,29.4,27.5,00.0,38.2,31.2,31.7,0001.9,0018.27,0009.40,0008.46
2022-07-26 05:37:00,,0825.5,5.00,0.00,29.4,27.7,00.0,38.2,31.2,31.8,0002.2,0018.19,0009.40,0008.46
2022-07-26 05:38:00,,0825.5,4.99,0.00,29.4,27.8,00.0,38.2,31.2,31.6,0002.3,0017.72,0009.39,0008.45
2022-07-26 05:39:00,,0825.5,5.00,0.00,29.4,28.0,00.0,38.2,31.3,31.6,0002.5,0017.44,0009.43,0008.46
2022-07-26 05:40:00,,0825.5,4.99,0.00,29.4,28.1,00.0,38.2,31.3,31.5,0002.5,0017.58,0009.45,0008.46
2022-07-26 05:41:00,,0825.5,5.00,0.00,29.5,28.2,00.0,38.2,31.4,31.5,0002.3,0017.56,0009.45,0008.48
2022-07-26 05:42:00,,0825.5,5.00,0.00,29.5,28.3,00.0,38.2,31.4,31.7,0002.2,0017.48,0009.48,0008.50
2022-07-26 05:43:00,,0825.5,4.99,0.00,29.5,28.4,00.0,38.2,31.5,31.6,0002.1,0017.61,0009.52,0008.51
2022-07-26 05:44:00,,0825.5,5.00,0.00,29.6,28.5,00.0,38.2,31.5,31.4,0000.9,0017.83,0009.60,0008.51
2022-07-26 05:45:00,,0825.5,5.01,0.00,29.6,28.6,00.0,38.3,31.6,31.4,0000.0,0016.87,0009.60,0008.54
2022-07-26 05:46:00,,0825.6,5.00,0.00,29.6,28.6,00.0,38.3,31.6,31.2,0000.0,0016.33,0009.56,0008.56
2022-07-26 05:47:00,,0825.6,4.99,0.00,29.7,28.5,00.0,38.3,31.6,31.2,0000.0,0016.25,0009.56,0008.56
2022-07-26 05:48:00,,0825.6,5.01,0.00,29.6,27.8,00.0,38.3,31.5,31.2,0000.0,0016.75,0009.61,0008.58
2022-07-26 05:49:00,,0825.5,5.00,0.00,29.6,27.1,00.0,38.2,31.4,31.3,0000.0,0016.48,0009.69,0008.60
2022-07-26 05:50:00,,0825.6,4.98,0.00,29.5,26.8,00.0,38.2,31.2,31.3,0000.0,0016.48,0009.74,0008.59
2022-07-26 05:51:00,,0825.6,5.00,0.00,29.4,26.8,00.0,38.2,31.1,31.5,0000.0,0016.51,0009.72,0008.55
2022-07-26 05:52:00,,0825.6,5.00,0.00,29.4,27.0,00.0,38.2,31.1,31.7,0000.0,0016.59,0009.70,0008.50
2022-07-26 05:53:00,,0825.6,5.00,0.00,29.3,27.2,00.0,38.1,31.1,31.7,0000.0,0016.41,0009.66,0008.46
2022-07-26 05:54:00,,0825.6,5.00,0.00,29.3,27.3,00.0,38.1,31.2,31.8,0000.0,0016.19,0009.64,0008.43
2022-07-26 05:55:00,,0825.6,4.99,0.00,29.3,27.5,00.0,38.1,31.2,31.8,0000.0,0016.06,0009.60,0008.40
2022-07-26 05:56:00,,0825.6,5.00,0.00,29.4,27.7,00.0,38.1,31.2,31.8,0000.0,0016.55,0009.62,0008.35
2022-07-26 05:57:00,,0825.6,5.00,0.00,29.4,27.8,00.0,38.1,31.2,31.8,0000.2,0016.51,0009.64,0008.32
2022-07-26 05:58:00,,0825.7,4.99,0.00,29.4,28.0,00.0,38.2,31.3,31.8,0000.0,0016.93,0009.63,0008.27
2022-07-26 05:59:00,,0825.6,4.99,0.00,29.4,28.1,00.0,38.2,31.3,31.8,0000.0,0016.54,0009.57,0008.21
